Tracking 19407 objects as of 14-Dec-2018
HD Live streaming from Space Station
objects crossing your sky now

TIROS 6

Track TIROS 6 now!
10-day predictions
TIROS 6 is classified as:


NORAD ID: 397
Int'l Code: 1962-047A
Perigee: 604.2 km
Apogee: 616.3 km
Inclination: 58.3 °
Period: 96.8 minutes
Semi major axis: 6981 km
RCS: 0.807 m2 (medium)
Launch date: September 18, 1962
Source: United States (US)
Launch site: AIR FORCE EASTERN TEST RANGE (AFETR)
aabbcc
Your satellite tracking list
Your tracking list is empty




NASA's NSSDC Master Catalog

Two Line Element Set (TLE):
1   397U 62047A   18348.46507359 -.00000090  00000-0  13440-4 0  9997
2   397  58.3063 320.0982 0008694  23.2072 336.9363 14.88339197 24892
Source of the keplerian elements: AFSPC